EXPLORER 38 DEB, 3848

Orbit data source: Space-Track

EXPLORER 38 DEB, 3848 is space debris originally from a launch on Thu, 04 Jul 1968 UTC launched from the Air Force Western Test Range (AFWTR). Debris objects in space refer to the collection of defunct objects orbiting the Earth. Examples of debris include non-operational satellites, rocket bodies, and fragments generated from explosions, collisions, or faulty payload assembly.

Loading next visibility...
Identifier
3848, 1968-055C
Orbit
Active
Country
Flag of USUS
Related business
Manufacturer
Thiokol/TE
Mission
Spacecraft
Bus & Motor
STAR 17, Unknown motor
Mass
79 kg wet, 10 kg dry
Launch date (UTC)
1968-07-04 (57 years ago)
Launch vehicle
Unknown
Launch site
Air Force Western Test Range (AFWTR)
Object type
Payload
Rocket body
Debris
Shape & HBR
Sphere + Cone, 0.3 m
Radar Cross Section
0.281 m², Medium (>0.1 m² and < 1m²)

Expand to show TLE details & history
Last TLE update: 1 year ago

TLE from 1 year ago
0 EXPLORER 38 DEB
1 03848U 68055C   24226.29490897 -.00000010  00000-0  00000-0 0  9993
2 03848 120.8322 182.0702 0017060 226.2182 133.7008  6.42500615216819
Epoch: 2024-08-13T07:04Z
TLE epoch observation values (Epoch: 2024-08-13T07:04:40.135Z)
Latitude
-0.00001°
Longitude
113.68901°
Altitude
5,859.44 km
Speed
5.704 km/s
True Right ascension
12h 08m 16s
True Declination
0° 00' 00"
Sunlit
Object was in daylight at epoch
Visualization orbit readout
Latitude
Unknown
Longitude
Unknown
Altitude
Unknown
Speed
Unknown
Apparent Right ascension
Unknown
Apparent Declination
Unknown
Sunlit
N/A
Visualization observer readout
Local Sidereal Time
17:56:29
Azimuth
Unknown
Elevation
Unknown
Doppler factor
Unknown
Orbital elements
Apogee altitude
5,864.636 km
Perigee altitude
5,822.934 km
Semi-major axis
12,221.922 km
Eccentricity
0.00171
Inclination
120.8322°
RAAN
182.0702°
Arg. of periapsis
226.2182°
True anomaly
133.84193°
Mean anomaly
133.7008°
Eccentric anomaly
133.77138°
Mean motion
1.60633 °/min
Orbital period
224.11 mins
BSTAR
0
Loading maneuver chart data...
Computing Atmospheric mass density...
Loading historical data...
Loading historical data...
Loading historical data...
Loading historical data...
Loading historical data...
Loading historical data...
Loading historical data...

Documentation

Showing up to 5 results
|